EW9448 La Marina ES current weather conditions

sailwx.info

Wind from 250 at 0 knots gusting 1

Air temperature 20.0° C
Dewpoint 17.4° C

Last reported at 2020-Sep-19 07:10 UTC.
Time now 2020-Sep-19 09:07 UTC

Location: N 38°09' W 000°39'.
View on Google Maps.

See reports from other nearby stations

  
Tides and Currents Weather Stations Pressure Air Temp Water Temp Dewpoint Dewpoint Depression Visibility Wind Speed Wind Dir Waves Ship Positions
date/time (UTC)wind fromknots sea level pressurealtimeterstation pressurevisibilityair tempwater tempwave heightnotes
2020-Sep-19 07:10 250 0 gusting 1 20.0
2020-Sep-19 05:30 268 0 gusting 1 18.9
2020-Sep-19 05:10 248 1 gusting 4 18.9
2020-Sep-19 04:50 202 0 gusting 4 18.9
2020-Sep-19 04:20 270 1 gusting 4 19.4
2020-Sep-19 04:00 270 1 gusting 2 19.4
2020-Sep-19 03:40 245 1 gusting 2 19.4
2020-Sep-19 02:30 248 0 gusting 2 20.0
2020-Sep-19 01:40 270 1 gusting 2 20.0
2020-Sep-19 01:10 248 0 gusting 0 20.0
2020-Sep-19 00:50 225 20.6
2020-Sep-19 00:40 248 20.6
2020-Sep-19 00:20 248 20.6
2020-Sep-19 00:10 183 20.6
2020-Sep-19 00:00 158 20.6
2020-Sep-18 23:50 158 20.6
2020-Sep-18 23:10 135 20.6
2020-Sep-18 22:20 135 21.1
2020-Sep-18 21:00 022 21.7
2020-Sep-18 20:20 158 21.7
2020-Sep-18 20:10 112 22.2
2020-Sep-18 20:00 112 22.2
2020-Sep-18 19:40 112 22.8
2020-Sep-18 18:20 112 23.9
2020-Sep-18 18:10 133 23.9
2020-Sep-18 17:20 068 25.6
2020-Sep-18 15:30 135 0 gusting 1 25.0
2020-Sep-18 12:40 158 1 gusting 2 21.7
2020-Sep-18 12:30 068 0 gusting 1 21.7
2020-Sep-18 12:10 270 4 gusting 6 21.7
2020-Sep-18 12:00 270 2 gusting 6 22.2
2020-Sep-18 11:30 270 0 gusting 1 22.8
2020-Sep-18 11:20 271 0 gusting 1 22.8
2020-Sep-18 10:00 315 22.8
2020-Sep-18 09:30 231 22.8
2020-Sep-18 09:10 270 22.8
2020-Sep-18 08:20 291 21.7
2020-Sep-18 08:00 045 21.1
2020-Sep-18 07:20 134 0 gusting 1 20.6
2020-Sep-18 06:50 022 21.1
2020-Sep-18 06:10 270 0 gusting 1 21.1
2020-Sep-18 05:30 251 0 gusting 1 22.2
2020-Sep-18 04:20 270 2 gusting 6 23.3
2020-Sep-18 03:50 313 4 gusting 6 23.3
2020-Sep-18 03:40 270 4 gusting 6 23.3
2020-Sep-18 03:20 270 2 gusting 2 22.8
2020-Sep-18 02:50 248 1 gusting 2 22.8
2020-Sep-18 02:20 248 1 gusting 4 22.8
2020-Sep-18 00:30 225 23.3
2020-Sep-17 23:40 158 23.3
2020-Sep-17 22:40 068 23.3
2020-Sep-17 22:30 068 23.3
2020-Sep-17 21:40 068 23.9
2020-Sep-17 21:30 068 24.4
2020-Sep-17 21:10 068 24.4
2020-Sep-17 20:50 068 25.0
2020-Sep-17 20:40 068 25.0
2020-Sep-17 20:00 022 25.6
2020-Sep-17 19:50 022 25.6
2020-Sep-17 19:40 068 25.6
2020-Sep-17 19:10 110 0 gusting 1 25.6
2020-Sep-17 19:00 090 25.6
2020-Sep-17 18:40 112 26.1
2020-Sep-17 18:30 068 26.1
2020-Sep-17 17:30 069 0 gusting 0 26.7
2020-Sep-17 17:20 111 0 gusting 1 26.7
2020-Sep-17 17:10 112 0 gusting 2 26.7
2020-Sep-17 17:00 112 1 gusting 2 27.2
2020-Sep-17 16:10 112 1 gusting 2 28.9
2020-Sep-17 15:00 135 2 gusting 5 31.1
2020-Sep-17 14:50 113 2 gusting 5 31.7
2020-Sep-17 14:40 135 1 gusting 2 31.1
2020-Sep-17 14:30 090 1 gusting 2 31.1
2020-Sep-17 14:20 108 1 gusting 4 30.6
2020-Sep-17 14:00 112 2 gusting 2 30.0
2020-Sep-17 12:40 133 2 gusting 5 28.9
2020-Sep-17 12:10 045 1 gusting 2 28.9
2020-Sep-17 10:10 292 25.6
2020-Sep-17 09:10 306 25.0
2020-Sep-17 09:00 292 24.4